Weather History for Roseau, MN

Change the Weather History Date:

Saturday, November 30, 2013

  Actual Average Record
Temperature  
Mean Temperature 20 °F -  
Max Temperature 24 °F 25 °F 43 °F (1969)
Min Temperature 17 °F 8 °F -31 °F (1978)
Degree Days  
Heating Degree Days 44    
Moisture  
Dew Point 17 °F    
Average Humidity 80    
Maximum Humidity 86    
Minimum Humidity 74    
Precipitation  
Precipitation 0.00 in - - ()
Sea Level Pressure  
Sea Level Pressure 30.09 in    
Wind  
Wind Speed 6 mph (NW)    
Max Wind Speed 10 mph    
Max Gust Speed -    
Visibility 9 miles    
Events      
Averages and records for this station are not official NWS values.
T = Trace of Precipitation, MM = Missing Value Source: NWS Daily Summary

Daily Weather History Graph

Daily Weather History Graph

Search for Another Location

Airport:

Trip Planner

Search our weather history database for the weather conditions in past years. The results will help you decide how hot, cold, wet, or windy it might be!

Date:

Astronomy

Nov. 30, 2013 Rise Set
Actual Time 7:53 AM CST 4:28 PM CST
Civil Twilight 7:17 AM CST 5:05 PM CST
Nautical Twilight 6:38 AM CST 5:44 PM CST
Astronomical Twilight 6:00 AM CST 6:22 PM CST
Moon 4:54 AM CST (11/30) 3:03 PM CST (11/30)
Length of Visible Light 9h 47m
Length of Day
8h 34m
Waning Crescent, 7% of the Moon is Illuminated
Nov 30
Waning Crescent
Dec 2
New
Dec 9
First Quarter
Dec 17
Full
Dec 25
Last Quarter

Hourly Weather History & Observations

Time (CST) Temp. Windchill Dew Point Humidity Pressure Visibility Wind Dir Wind Speed Gust Speed Precip Events Conditions
12:14 AM 17.6 °F 7.3 °F 12.2 °F 79% 29.96 in 10.0 mi South 8.1 mph - N/A   Scattered Clouds
12:34 AM 19.4 °F 10.4 °F 14.0 °F 80% 29.96 in 10.0 mi SSW 6.9 mph - N/A   Scattered Clouds
12:54 AM 21.2 °F 13.6 °F 15.8 °F 80% 29.96 in 10.0 mi SSW 5.8 mph - N/A   Scattered Clouds
1:14 AM 23.0 °F 14.7 °F 15.8 °F 74% 29.96 in 10.0 mi SSW 6.9 mph - N/A   Mostly Cloudy
1:34 AM 21.2 °F 12.6 °F 15.8 °F 80% 29.96 in 10.0 mi SSW 6.9 mph - N/A   Scattered Clouds
1:54 AM 21.2 °F 14.9 °F 15.8 °F 80% 29.96 in 10.0 mi SSW 4.6 mph - N/A   Clear
2:14 AM 21.2 °F - 15.8 °F 80% 29.97 in 10.0 mi Calm Calm - N/A   Clear
2:34 AM 21.2 °F 16.4 °F 17.6 °F 86% 29.96 in 10.0 mi SW 3.5 mph - N/A   Scattered Clouds
2:54 AM 21.2 °F - 15.8 °F 80% 29.96 in 10.0 mi Calm Calm - N/A   Scattered Clouds
3:14 AM 21.2 °F - 15.8 °F 80% 29.97 in 10.0 mi Calm Calm - N/A   Clear
3:35 AM 21.2 °F - 17.6 °F 86% 29.96 in 10.0 mi Calm Calm - N/A   Clear
3:54 AM 23.0 °F 15.8 °F 17.6 °F 80% 29.97 in 10.0 mi West 5.8 mph - N/A   Clear
4:14 AM 21.2 °F 11.7 °F 17.6 °F 86% 29.98 in 10.0 mi West 8.1 mph - N/A   Clear
4:35 AM 21.2 °F 10.9 °F 17.6 °F 86% 29.98 in 10.0 mi West 9.2 mph - N/A   Scattered Clouds
4:54 AM 21.2 °F 12.6 °F 15.8 °F 80% 29.99 in 10.0 mi WNW 6.9 mph - N/A   Mostly Cloudy
5:14 AM 21.2 °F 13.6 °F 15.8 °F 80% 29.99 in 10.0 mi WNW 5.8 mph - N/A   Overcast
5:34 AM 21.2 °F 12.6 °F 17.6 °F 86% 30.00 in 10.0 mi NW 6.9 mph - N/A   Overcast
5:54 AM 21.2 °F 12.6 °F 17.6 °F 86% 30.00 in 10.0 mi NW 6.9 mph - N/A   Overcast
6:14 AM 23.0 °F 14.7 °F 17.6 °F 80% 30.00 in 10.0 mi NW 6.9 mph - N/A   Overcast
6:34 AM 23.0 °F 13.9 °F 17.6 °F 80% 30.01 in 10.0 mi NW 8.1 mph - N/A   Overcast
6:54 AM 23.0 °F 13.9 °F 17.6 °F 80% 30.02 in 10.0 mi NW 8.1 mph - N/A   Overcast
7:14 AM 23.0 °F 13.9 °F 17.6 °F 80% 30.03 in 10.0 mi NW 8.1 mph - N/A   Overcast
7:34 AM 23.0 °F 14.7 °F 17.6 °F 80% 30.03 in 10.0 mi NW 6.9 mph - N/A   Overcast
7:54 AM 23.0 °F 12.4 °F 17.6 °F 80% 30.04 in 10.0 mi NNW 10.4 mph - N/A   Overcast
8:14 AM 23.0 °F 13.1 °F 17.6 °F 80% 30.06 in 10.0 mi NNW 9.2 mph - N/A   Overcast
8:34 AM 23.0 °F 13.9 °F 17.6 °F 80% 30.06 in 10.0 mi NNW 8.1 mph - N/A   Overcast
8:54 AM 23.0 °F 14.7 °F 17.6 °F 80% 30.07 in 10.0 mi NNW 6.9 mph - N/A   Overcast
9:15 AM 23.0 °F 12.4 °F 17.6 °F 80% 30.07 in 10.0 mi NNW 10.4 mph - N/A   Overcast
9:34 AM 23.0 °F 14.7 °F 17.6 °F 80% 30.08 in 10.0 mi NNW 6.9 mph - N/A   Overcast
9:54 AM 23.0 °F 14.7 °F 17.6 °F 80% 30.09 in 10.0 mi NW 6.9 mph - N/A   Overcast
10:14 AM 23.0 °F 15.8 °F 17.6 °F 80% 30.09 in 10.0 mi NNW 5.8 mph - N/A   Overcast
10:34 AM 24.8 °F 17.9 °F 17.6 °F 74% 30.10 in 10.0 mi North 5.8 mph - N/A   Overcast
10:54 AM 24.8 °F 16.9 °F 17.6 °F 74% 30.10 in 10.0 mi NNW 6.9 mph - N/A   Overcast
11:14 AM 24.8 °F 16.9 °F 17.6 °F 74% 30.10 in 10.0 mi NNW 6.9 mph - N/A   Overcast
11:34 AM 24.8 °F 17.9 °F 17.6 °F 74% 30.10 in 10.0 mi NNW 5.8 mph - N/A   Overcast
11:54 AM 24.8 °F 16.1 °F 17.6 °F 74% 30.11 in 10.0 mi NW 8.1 mph - N/A   Overcast
12:14 PM 24.8 °F 17.9 °F 17.6 °F 74% 30.11 in 10.0 mi NNW 5.8 mph - N/A   Overcast
12:34 PM 24.8 °F 19.1 °F 17.6 °F 74% 30.11 in 10.0 mi NNW 4.6 mph - N/A   Overcast
12:54 PM 24.8 °F 17.9 °F 17.6 °F 74% 30.12 in 10.0 mi North 5.8 mph - N/A   Overcast
1:14 PM 24.8 °F 16.1 °F 17.6 °F 74% 30.11 in 10.0 mi NNW 8.1 mph - N/A   Overcast
1:34 PM 24.8 °F 17.9 °F 17.6 °F 74% 30.11 in 10.0 mi North 5.8 mph - N/A   Overcast
1:54 PM 24.8 °F 17.9 °F 17.6 °F 74% 30.11 in 10.0 mi North 5.8 mph - N/A   Overcast
2:14 PM 23.0 °F 18.4 °F 17.6 °F 80% 30.11 in 10.0 mi NNW 3.5 mph - N/A   Overcast
2:34 PM 24.8 °F 20.5 °F 17.6 °F 74% 30.11 in 10.0 mi North 3.5 mph - N/A   Overcast
2:54 PM 24.8 °F - 17.6 °F 74% 30.11 in 10.0 mi Calm Calm - N/A   Overcast
3:14 PM 23.0 °F 17.0 °F 17.6 °F 80% 30.13 in 10.0 mi North 4.6 mph - N/A   Overcast
3:34 PM 23.0 °F 15.8 °F 17.6 °F 80% 30.13 in 10.0 mi North 5.8 mph - N/A   Overcast
3:54 PM 23.0 °F 17.0 °F 17.6 °F 80% 30.14 in 10.0 mi NNW 4.6 mph - N/A   Overcast
4:15 PM 23.0 °F 18.4 °F 17.6 °F 80% 30.15 in 10.0 mi NNW 3.5 mph - N/A   Overcast
4:34 PM 23.0 °F - 17.6 °F 80% 30.15 in 10.0 mi Calm Calm - N/A   Overcast
4:54 PM 23.0 °F - 17.6 °F 80% 30.15 in 10.0 mi Calm Calm - N/A   Overcast
5:15 PM 23.0 °F 17.0 °F 17.6 °F 80% 30.16 in 10.0 mi NW 4.6 mph - N/A   Overcast
5:34 PM 23.0 °F 18.4 °F 17.6 °F 80% 30.17 in 10.0 mi WNW 3.5 mph - N/A   Overcast
5:54 PM 23.0 °F 18.4 °F 17.6 °F 80% 30.17 in 10.0 mi WNW 3.5 mph - N/A   Overcast
6:15 PM 21.2 °F 14.9 °F 17.6 °F 86% 30.18 in 10.0 mi WNW 4.6 mph - N/A   Overcast
6:34 PM 21.2 °F 16.4 °F 17.6 °F 86% 30.18 in 10.0 mi NW 3.5 mph - N/A   Overcast
6:54 PM 21.2 °F 12.6 °F 17.6 °F 86% 30.18 in 10.0 mi NW 6.9 mph - N/A   Overcast
7:15 PM 21.2 °F 14.9 °F 17.6 °F 86% 30.18 in 10.0 mi WNW 4.6 mph - N/A   Overcast
7:34 PM 21.2 °F 14.9 °F 17.6 °F 86% 30.18 in 7.0 mi WNW 4.6 mph - N/A   Overcast
7:54 PM 21.2 °F 16.4 °F 17.6 °F 86% 30.18 in 7.0 mi WNW 3.5 mph - N/A   Overcast
8:15 PM 21.2 °F 14.9 °F 17.6 °F 86% 30.18 in 7.0 mi West 4.6 mph - N/A   Overcast
8:34 PM 21.2 °F 14.9 °F 15.8 °F 80% 30.18 in 7.0 mi West 4.6 mph - N/A   Overcast
8:54 PM 21.2 °F 14.9 °F 17.6 °F 86% 30.18 in 5.0 mi WNW 4.6 mph - N/A   Overcast
9:15 PM 21.2 °F 14.9 °F 15.8 °F 80% 30.18 in 2.5 mi WNW 4.6 mph - N/A   Haze
9:34 PM 21.2 °F 13.6 °F 15.8 °F 80% 30.19 in 2.0 mi WNW 5.8 mph - N/A   Haze
9:54 PM 21.2 °F 13.6 °F 15.8 °F 80% 30.19 in 2.0 mi WNW 5.8 mph - N/A   Haze
10:13 PM 21.2 °F 13.6 °F 15.8 °F 80% 30.19 in 1.8 mi WNW 5.8 mph - N/A   Haze
10:34 PM 21.2 °F 14.9 °F 15.8 °F 80% 30.19 in 1.5 mi WNW 4.6 mph - N/A   Haze
10:54 PM 19.4 °F 11.5 °F 15.8 °F 86% 30.19 in 1.8 mi WNW 5.8 mph - N/A   Overcast
11:14 PM 19.4 °F 11.5 °F 15.8 °F 86% 30.19 in 2.5 mi WNW 5.8 mph - N/A   Overcast
11:34 PM 19.4 °F 11.5 °F 15.8 °F 86% 30.19 in 3.0 mi NW 5.8 mph - N/A   Overcast
11:54 PM 19.4 °F 14.3 °F 15.8 °F 86% 30.19 in 3.0 mi WNW 3.5 mph - N/A   Overcast